Capitol Logistics 203


KMIA
Miami International Airport
Miami, Florida, US
KRFD
Chicago/Rockford International Airport
Rockford, Illinois, US

Route Details

Aircraft Information
Primary: Boeing 767-300BDSF
Backup: Not Available
Route Data
Distance: 1139nm
Sched. Duration: 3h 00m
Avg. Duration: 3h 00m (+0m)
Times Flown: 15
Recm'd Route: WINCO2 WINCO J73 LAL CTY J91 ATL VARNM GLAZR Q118 HEVAN Q118 MZZ JOT
Planned Altitude: 35,000ft
Origin Wx: KMIA 021353Z 00000KT 10SM SCT028 SCT250 31/24 A3001 RMK AO2 SLP161 T03110239 $
Dest. Wx: KRFD 021354Z VRB03KT 10SM FEW050 SCT250 27/18 A3007 RMK AO2 SLP176 T02670183
Notes:

Financial History
Total Freight: 1,112,496lbs
Average Load: 74,166lbs/flt
Fuel Used: 430,513lbs
Avg. Fuel Used: 28,701lbs/flt
Fuel Expense: $530,765
Avg. Fuel Expense: $35,384
Avg. Fuel Cost: $1.23/lbs
Total Gross Income: $1,512,908
Pilot Pay: $2,095
Total Expenses: $164,174
Total Revenue: $809,458
Average Revenue: $100,860.50